| time (UTC) | temp F | wind direction | speed MPH | gust MPH | rain 1hr in | rain 24hr in | rain mn in | humidity % | barometer mb |
| 20260901155306 | 77 | 170 | 3.0 | 7.0 | 0.00 | 0.00 | 0.00 | 76 | 1022.0 |
| 20260901154804 | 77 | 192 | 5.0 | 8.0 | 0.00 | 0.00 | 0.00 | 76 | 1022.0 |
| 20260901154304 | 78 | 221 | 5.0 | 8.0 | 0.00 | 0.00 | 0.00 | 75 | 1022.0 |
| 20260901151805 | 77 | 137 | 5.0 | 7.0 | 0.00 | 0.00 | 0.00 | 72 | 1022.0 |
| 20260901151305 | 78 | 153 | 5.0 | 9.0 | 0.00 | 0.00 | 0.00 | 71 | 1022.0 |
| 20260901150806 | 78 | 153 | 5.0 | 7.0 | 0.00 | 0.00 | 0.00 | 73 | 1022.0 |
| 20260901144806 | 78 | 211 | 5.0 | 10.0 | 0.00 | 0.00 | 0.00 | 74 | 1022.0 |
| 20260901143305 | 78 | 176 | 5.0 | 9.0 | 0.00 | 0.00 | 0.00 | 75 | 1022.0 |
| 20260901142806 | 77 | 159 | 4.0 | 9.0 | 0.00 | 0.00 | 0.00 | 76 | 1022.0 |
| 20260901142306 | 77 | 238 | 4.0 | 7.0 | 0.00 | 0.00 | 0.00 | 76 | 1022.0 |
| 20260901141806 | 77 | 203 | 5.0 | 7.0 | 0.00 | 0.00 | 0.00 | 77 | 1022.0 |
| 20260901141305 | 78 | 169 | 4.0 | 7.0 | 0.00 | 0.00 | 0.00 | 76 | 1022.0 |
| 20260901140806 | 77 | 253 | 4.0 | 7.0 | 0.00 | 0.00 | 0.00 | 75 | 1022.0 |
| 20260901140305 | 78 | 238 | 3.0 | 7.0 | 0.00 | 0.00 | 0.00 | 74 | 1022.0 |
| 20260901135806 | 78 | 245 | 3.0 | 7.0 | 0.00 | 0.00 | 0.00 | 75 | 1022.0 |
| 20260901134306 | 78 | 224 | 3.0 | 6.0 | 0.00 | 0.00 | 0.00 | 74 | 1022.0 |
| 20260901131805 | 77 | 241 | 5.0 | 9.0 | 0.00 | 0.00 | 0.00 | 76 | 1022.0 |
| 20260901131306 | 78 | 275 | 4.0 | 7.0 | 0.00 | 0.00 | 0.00 | 76 | 1022.0 |
| 20260901130805 | 77 | 243 | 5.0 | 9.0 | 0.00 | 0.00 | 0.00 | 75 | 1022.0 |
| 20260901130306 | 76 | 275 | 5.0 | 7.0 | 0.00 | 0.00 | 0.00 | 78 | 1022.0 |
| 20260901125806 | 77 | 246 | 4.0 | 7.0 | 0.00 | 0.00 | 0.00 | 77 | 1022.0 |
| 20260901124806 | 76 | 243 | 5.0 | 9.0 | 0.00 | 0.00 | 0.00 | 77 | 1022.0 |
| 20260901124307 | 76 | 232 | 5.0 | 9.0 | 0.00 | 0.00 | 0.00 | 76 | 1022.0 |
| 20260901123805 | 76 | 261 | 5.0 | 9.0 | 0.00 | 0.00 | 0.00 | 77 | 1022.0 |
| 20260901123306 | 76 | 262 | 6.0 | 9.0 | 0.00 | 0.00 | 0.00 | 75 | 1022.0 |
| 20260901122805 | 77 | 253 | 4.0 | 8.0 | 0.00 | 0.00 | 0.00 | 75 | 1022.0 |
| 20260901122306 | 76 | 203 | 3.0 | 6.0 | 0.00 | 0.00 | 0.00 | 76 | 1022.0 |
| 20260901120305 | 76 | 266 | 4.0 | 7.0 | 0.00 | 0.00 | 0.00 | 78 | 1022.0 |
| 20260901115805 | 77 | 264 | 4.0 | 8.0 | 0.00 | 0.00 | 0.00 | 78 | 1022.0 |
| 20260901115306 | 76 | 247 | 4.0 | 7.0 | 0.00 | 0.00 | 0.00 | 79 | 1022.0 |
| 20260901114805 | 76 | 246 | 5.0 | 7.0 | 0.00 | 0.00 | 0.00 | 77 | 1022.0 |
| 20260901114305 | 76 | 264 | 3.0 | 6.0 | 0.00 | 0.00 | 0.00 | 77 | 1022.0 |
| 20260901113805 | 76 | 267 | 3.0 | 7.0 | 0.00 | 0.00 | 0.00 | 79 | 1022.0 |
| 20260901113305 | 75 | 262 | 6.0 | 9.0 | 0.00 | 0.00 | 0.00 | 81 | 1022.0 |
| 20260901112806 | 74 | 264 | 4.0 | 9.0 | 0.00 | 0.00 | 0.00 | 83 | 1022.0 |
| 20260901112306 | 75 | 280 | 3.0 | 8.0 | 0.00 | 0.00 | 0.00 | 81 | 1022.0 |
| 20260901105305 | 75 | 244 | 5.0 | 7.0 | 0.00 | 0.00 | 0.00 | 82 | 1022.0 |
| 20260901104806 | 74 | 257 | 5.0 | 8.0 | 0.00 | 0.00 | 0.00 | 81 | 1022.0 |
| 20260901104305 | 75 | 265 | 3.0 | 7.0 | 0.00 | 0.00 | 0.00 | 81 | 1022.0 |
| 20260901103805 | 74 | 253 | 4.0 | 7.0 | 0.00 | 0.00 | 0.00 | 82 | 1022.0 |
| 20260901102306 | 74 | 241 | 3.0 | 7.0 | 0.00 | 0.00 | 0.00 | 84 | 1022.0 |
| 20260901101806 | 74 | 248 | 4.0 | 6.0 | 0.00 | 0.00 | 0.00 | 82 | 1022.0 |
| 20260901095805 | 74 | 234 | 5.0 | 7.0 | 0.00 | 0.00 | 0.00 | 82 | 1022.0 |
| 20260901093805 | 73 | 249 | 3.0 | 5.0 | 0.00 | 0.00 | 0.00 | 83 | 1022.0 |
| 20260901093305 | 73 | 244 | 2.0 | 5.0 | 0.00 | 0.00 | 0.00 | 83 | 1022.0 |
| 20260901092306 | 72 | 238 | 2.0 | 3.0 | 0.00 | 0.00 | 0.00 | 87 | 1022.0 |
| 20260901091805 | 71 | 252 | 2.0 | 3.0 | 0.00 | 0.00 | 0.00 | 87 | 1022.0 |
| 20260901085805 | 72 | 252 | 3.0 | 5.0 | 0.00 | 0.00 | 0.00 | 85 | 1022.0 |
| 20260901085306 | 72 | 218 | 2.0 | 3.0 | 0.00 | 0.00 | 0.00 | 85 | 1022.0 |
| 20260901084805 | 73 | 240 | 3.0 | 3.0 | 0.00 | 0.00 | 0.00 | 85 | 1022.0 |
| 20260901084305 | 73 | 236 | 1.0 | 3.0 | 0.00 | 0.00 | 0.00 | 85 | 1022.0 |
| 20260901083805 | 73 | 40 | 1.0 | 3.0 | 0.00 | 0.00 | 0.00 | 83 | 1022.0 |
| 20260901083305 | 73 | 134 | 1.0 | 3.0 | 0.00 | 0.00 | 0.00 | 83 | 1022.0 |
| 20260901082805 | 73 | 115 | 0.0 | 2.0 | 0.00 | 0.00 | 0.00 | 85 | 1022.0 |
| 20260901075805 | 69 | 75 | 0.0 | 1.0 | 0.00 | 0.00 | 0.00 | 90 | 1022.0 |
| 20260901075307 | 69 | 23 | 0.0 | 1.0 | 0.00 | 0.00 | 0.00 | 90 | 1022.0 |
| 20260901074805 | 69 | 23 | 1.0 | 1.0 | 0.00 | 0.00 | 0.00 | 90 | 1022.0 |
| 20260901074306 | 68 | 25 | 1.0 | 2.0 | 0.00 | 0.00 | 0.00 | 90 | 1022.0 |
| 20260901071805 | 66 | 22 | 1.0 | 2.0 | 0.00 | 0.00 | 0.00 | 89 | 1021.0 |
| 20260901071304 | 66 | 22 | 2.0 | 3.0 | 0.00 | 0.00 | 0.00 | 88 | 1021.0 |
| 20260901070805 | 66 | 19 | 1.0 | 2.0 | 0.00 | 0.00 | 0.00 | 88 | 1021.0 |
| 20260901064305 | 67 | 36 | 2.0 | 3.0 | 0.00 | 0.00 | 0.00 | 89 | 1021.0 |
| 20260901062805 | 67 | 34 | 2.0 | 3.0 | 0.00 | 0.00 | 0.00 | 89 | 1021.0 |
| 20260901061805 | 67 | 13 | 1.0 | 2.0 | 0.00 | 0.00 | 0.00 | 89 | 1021.0 |
| 20260901061305 | 67 | 13 | 1.0 | 2.0 | 0.00 | 0.00 | 0.00 | 89 | 1021.0 |
| 20260901060805 | 67 | 13 | 1.0 | 2.0 | 0.00 | 0.00 | 0.00 | 89 | 1021.0 |
| 20260901054805 | 67 | 4 | 1.0 | 1.0 | 0.00 | 0.00 | 0.00 | 88 | 1021.0 |
| 20260901054305 | 67 | 13 | 0.0 | 1.0 | 0.00 | 0.00 | 0.00 | 89 | 1021.0 |
| 20260901052805 | 67 | 13 | 1.0 | 2.0 | 0.00 | 0.00 | 0.00 | 88 | 1021.0 |
| 20260901052307 | 68 | 18 | 1.0 | 2.0 | 0.00 | 0.00 | 0.00 | 88 | 1021.0 |
| 20260901050805 | 68 | 23 | 1.0 | 3.0 | 0.00 | 0.00 | 0.00 | 88 | 1021.0 |
| 20260901050306 | 68 | 21 | 1.0 | 2.0 | 0.00 | 0.00 | 0.00 | 88 | 1021.0 |
| 20260901044805 | 68 | 14 | 0.0 | 3.0 | 0.00 | 0.00 | 0.00 | 87 | 1021.0 |
| 20260901044305 | 68 | 1 | 0.0 | 0.0 | 0.00 | 0.00 | 0.00 | 86 | 1021.0 |
| 20260901043805 | 68 | 3 | 0.0 | 1.0 | 0.00 | 0.00 | 0.00 | 86 | 1021.0 |
| 20260901043305 | 68 | 14 | 2.0 | 3.0 | 0.00 | 0.00 | 0.00 | 86 | 1021.0 |
| 20260901042805 | 69 | 16 | 2.0 | 3.0 | 0.00 | 0.00 | 0.00 | 86 | 1021.0 |
| 20260901041805 | 69 | 30 | 2.0 | 3.0 | 0.00 | 0.00 | 0.00 | 85 | 1021.0 |
| 20260901041305 | 69 | 21 | 2.0 | 3.0 | 0.00 | 0.00 | 0.00 | 85 | 1021.0 |
| 20260901040304 | 69 | 41 | 2.0 | 3.0 | 0.00 | 0.00 | 0.00 | 83 | 1021.0 |
| 20260901035805 | 69 | 21 | 2.0 | 3.0 | 0.00 | 0.00 | 0.00 | 83 | 1021.0 |
| 20260901024304 | 69 | 52 | 1.0 | 3.0 | 0.00 | 0.00 | 0.00 | 75 | 1022.0 |
| 20260901023805 | 69 | 79 | 1.0 | 3.0 | 0.00 | 0.00 | 0.00 | 73 | 1022.0 |
| 20260901023304 | 69 | 81 | 0.0 | 2.0 | 0.00 | 0.00 | 0.00 | 72 | 1022.0 |
| 20260901022805 | 69 | 24 | 1.0 | 2.0 | 0.00 | 0.00 | 0.00 | 71 | 1022.0 |
| 20260901022306 | 69 | 24 | 2.0 | 3.0 | 0.00 | 0.00 | 0.00 | 71 | 1022.0 |
| 20260901021805 | 69 | 9 | 0.0 | 0.0 | 0.00 | 0.00 | 0.00 | 71 | 1022.0 |
| 20260901021305 | 69 | 9 | 0.0 | 2.0 | 0.00 | 0.00 | 0.00 | 72 | 1022.0 |
| 20260901015804 | 69 | 13 | 2.0 | 3.0 | 0.00 | 0.00 | 0.00 | 72 | 1022.0 |
| 20260901013805 | 68 | 18 | 2.0 | 3.0 | 0.00 | 0.00 | 0.00 | 75 | 1022.0 |
| 20260901013306 | 68 | 14 | 2.0 | 3.0 | 0.00 | 0.00 | 0.00 | 76 | 1022.0 |
| 20260901012804 | 68 | 3 | 2.0 | 3.0 | 0.00 | 0.00 | 0.00 | 77 | 1022.0 |
| 20260901012306 | 68 | 22 | 2.0 | 3.0 | 0.00 | 0.00 | 0.00 | 78 | 1022.0 |
| 20260901011304 | 68 | 11 | 1.0 | 2.0 | 0.00 | 0.00 | 0.00 | 78 | 1022.0 |
| 20260901010805 | 68 | 11 | 1.0 | 2.0 | 0.00 | 0.00 | 0.00 | 77 | 1022.0 |
| 20260901010304 | 69 | 4 | 1.0 | 2.0 | 0.00 | 0.00 | 0.00 | 78 | 1022.0 |
| 20260901005307 | 69 | 15 | 1.0 | 3.0 | 0.00 | 0.00 | 0.00 | 79 | 1022.0 |
| 20260901003805 | 69 | 15 | 1.0 | 3.0 | 0.00 | 0.00 | 0.00 | 80 | 1022.0 |
| 20260901003306 | 69 | 15 | 2.0 | 3.0 | 0.00 | 0.00 | 0.00 | 80 | 1022.0 |
| 20260901002804 | 69 | 9 | 2.0 | 3.0 | 0.00 | 0.00 | 0.00 | 79 | 1022.0 |
| 20260831235306 | 70 | 16 | 0.0 | 2.0 | 0.00 | 0.00 | 0.00 | 82 | 1022.0 |
| 20260831234805 | 69 | 17 | 1.0 | 1.0 | 0.00 | 0.00 | 0.00 | 81 | 1022.0 |
| 20260831234304 | 69 | 17 | 1.0 | 2.0 | 0.00 | 0.00 | 0.00 | 80 | 1022.0 |
| 20260831233805 | 69 | 17 | 1.0 | 2.0 | 0.00 | 0.00 | 0.00 | 80 | 1022.0 |
| 20260831233305 | 69 | 17 | 1.0 | 2.0 | 0.00 | 0.00 | 0.00 | 79 | 1022.0 |
| 20260831232805 | 69 | 12 | 1.0 | 2.0 | 0.00 | 0.00 | 0.00 | 79 | 1022.0 |
| 20260831232306 | 69 | 1 | 1.0 | 3.0 | 0.00 | 0.00 | 0.00 | 79 | 1022.0 |
| 20260831231805 | 69 | 22 | 2.0 | 3.0 | 0.00 | 0.00 | 0.00 | 79 | 1022.0 |
| 20260831231305 | 69 | 20 | 2.0 | 3.0 | 0.00 | 0.00 | 0.00 | 80 | 1022.0 |
| 20260831230805 | 69 | 20 | 2.0 | 3.0 | 0.00 | 0.00 | 0.00 | 80 | 1022.0 |
| 20260831225306 | 69 | 28 | 2.0 | 3.0 | 0.00 | 0.00 | 0.00 | 79 | 1022.0 |
| 20260831224805 | 70 | 19 | 1.0 | 2.0 | 0.00 | 0.00 | 0.00 | 79 | 1022.0 |
| 20260831223304 | 70 | 22 | 2.0 | 3.0 | 0.00 | 0.00 | 0.00 | 80 | 1023.0 |
| 20260831222306 | 70 | 32 | 1.0 | 2.0 | 0.00 | 0.00 | 0.00 | 81 | 1023.0 |
| 20260831221805 | 70 | 31 | 1.0 | 3.0 | 0.00 | 0.00 | 0.00 | 81 | 1023.0 |
| 20260831221304 | 70 | 42 | 1.0 | 3.0 | 0.00 | 0.00 | 0.00 | 81 | 1023.0 |
| 20260831220806 | 70 | 35 | 1.0 | 3.0 | 0.00 | 0.00 | 0.00 | 81 | 1022.0 |
| 20260831215804 | 70 | 34 | 0.0 | 3.0 | 0.00 | 0.00 | 0.00 | 81 | 1022.0 |
| 20260831215306 | 70 | 27 | 0.0 | 2.0 | 0.00 | 0.00 | 0.00 | 81 | 1022.0 |
| 20260831214804 | 70 | 32 | 0.0 | 1.0 | 0.00 | 0.00 | 0.00 | 82 | 1022.0 |
| 20260831213304 | 71 | 5 | 0.0 | 2.0 | 0.00 | 0.00 | 0.00 | 82 | 1022.0 |
| 20260831212805 | 71 | 5 | 0.0 | 1.0 | 0.00 | 0.00 | 0.00 | 83 | 1022.0 |
| 20260831212306 | 71 | 11 | 0.0 | 0.0 | 0.00 | 0.00 | 0.00 | 82 | 1022.0 |
| 20260831210804 | 71 | 11 | 0.0 | 2.0 | 0.00 | 0.00 | 0.00 | 82 | 1021.0 |
| 20260831210304 | 71 | 28 | 0.0 | 2.0 | 0.00 | 0.00 | 0.00 | 81 | 1021.0 |
| 20260831205804 | 71 | 10 | 0.0 | 1.0 | 0.00 | 0.00 | 0.00 | 81 | 1021.0 |
| 20260831205306 | 71 | 10 | 0.0 | 0.0 | 0.00 | 0.00 | 0.00 | 81 | 1021.0 |
| 20260831204304 | 71 | 10 | 0.0 | 2.0 | 0.00 | 0.00 | 0.00 | 81 | 1021.0 |
| 20260831203805 | 72 | 12 | 1.0 | 2.0 | 0.00 | 0.00 | 0.00 | 80 | 1021.0 |
| 20260831203304 | 72 | 341 | 0.0 | 0.0 | 0.00 | 0.00 | 0.00 | 80 | 1021.0 |
| 20260831202804 | 72 | 76 | 0.0 | 0.0 | 0.00 | 0.00 | 0.00 | 80 | 1021.0 |
| 20260831195804 | 73 | 76 | 0.0 | 1.0 | 0.00 | 0.00 | 0.00 | 78 | 1021.0 |
| 20260831195306 | 73 | 76 | 0.0 | 2.0 | 0.00 | 0.00 | 0.00 | 77 | 1021.0 |
| 20260831193804 | 74 | 163 | 2.0 | 3.0 | 0.00 | 0.00 | 0.00 | 77 | 1021.0 |
| 20260831193304 | 74 | 148 | 2.0 | 3.0 | 0.00 | 0.00 | 0.00 | 76 | 1021.0 |
| 20260831191304 | 74 | 156 | 3.0 | 5.0 | 0.00 | 0.00 | 0.00 | 75 | 1021.0 |
| 20260831190804 | 75 | 132 | 2.0 | 3.0 | 0.00 | 0.00 | 0.00 | 75 | 1021.0 |
| 20260831190304 | 75 | 120 | 1.0 | 5.0 | 0.00 | 0.00 | 0.00 | 74 | 1021.0 |
| 20260831184805 | 76 | 133 | 2.0 | 6.0 | 0.00 | 0.00 | 0.00 | 74 | 1021.0 |
| 20260831183304 | 76 | 216 | 3.0 | 5.0 | 0.00 | 0.00 | 0.00 | 73 | 1021.0 |
| 20260831182805 | 76 | 160 | 3.0 | 3.0 | 0.00 | 0.00 | 0.00 | 74 | 1021.0 |
| 20260831182305 | 76 | 199 | 2.0 | 6.0 | 0.00 | 0.00 | 0.00 | 72 | 1021.0 |
| 20260831181804 | 76 | 203 | 3.0 | 5.0 | 0.00 | 0.00 | 0.00 | 72 | 1021.0 |
| 20260831175804 | 77 | 168 | 2.0 | 6.0 | 0.00 | 0.00 | 0.00 | 71 | 1021.0 |
| 20260831175306 | 76 | 195 | 3.0 | 5.0 | 0.00 | 0.00 | 0.00 | 71 | 1021.0 |
| 20260831173304 | 77 | 196 | 2.0 | 5.0 | 0.00 | 0.00 | 0.00 | 68 | 1021.0 |
| 20260831172804 | 77 | 216 | 3.0 | 6.0 | 0.00 | 0.00 | 0.00 | 69 | 1021.0 |
| 20260831172306 | 77 | 152 | 4.0 | 6.0 | 0.00 | 0.00 | 0.00 | 69 | 1021.0 |
| 20260831170804 | 77 | 213 | 3.0 | 7.0 | 0.00 | 0.00 | 0.00 | 70 | 1021.0 |
| 20260831170305 | 77 | 164 | 3.0 | 6.0 | 0.00 | 0.00 | 0.00 | 70 | 1021.0 |
| 20260831164305 | 77 | 234 | 3.0 | 7.0 | 0.00 | 0.00 | 0.00 | 69 | 1021.0 |
| 20260831162805 | 78 | 234 | 5.0 | 6.0 | 0.00 | 0.00 | 0.00 | 69 | 1021.0 |
| 20260831162306 | 78 | 203 | 3.0 | 7.0 | 0.00 | 0.00 | 0.00 | 67 | 1021.0 |
| 20260831161805 | 78 | 251 | 4.0 | 7.0 | 0.00 | 0.00 | 0.00 | 68 | 1021.0 |